Hobart, OK

4:40 AM CST on November 25, 2017 (GMT -0600)
Hobart Municipal

Weather History for KHBR - December, 2012

Change the Weather History Date:

Saturday, December 15, 2012

  Actual Average Record
Temperature  
Mean Temperature 47 °F -  
Max Temperature 57 °F 49 °F 66 °F (2010)
Min Temperature 37 °F 27 °F 14 °F (2008)
Degree Days  
Heating Degree Days 18    
Moisture  
Dew Point 37 °F    
Average Humidity 64    
Maximum Humidity 87    
Minimum Humidity 47    
Precipitation  
Precipitation 0.00 in - - ()
Sea Level Pressure  
Sea Level Pressure 29.76 in    
Wind  
Wind Speed 16 mph (SW)    
Max Wind Speed 22 mph    
Max Gust Speed -    
Visibility 10 miles    
Events      
Averages and records for this station are not official NWS values.
T = Trace of Precipitation, MM = Missing Value Source: NWS Daily Summary

Daily Weather History Graph

Daily Weather History Graph

Search for Another Location

Airport or City:

Trip Planner

Search our weather history database for the weather conditions in past years. The results will help you decide how hot, cold, wet, or windy it might be!

Date:

Astronomy

Dec. 15, 2012 Rise Set
Actual Time 7:37 AM CST 5:26 PM CST
Civil Twilight 7:08 AM CST 5:54 PM CST
Nautical Twilight 6:37 AM CST 6:25 PM CST
Astronomical Twilight 6:06 AM CST 6:56 PM CST
Moon 9:35 AM CST (12/15) 8:27 PM CST (12/15)
Length of Visible Light 10h 45m
Length of Day
9h 49m
Waxing Crescent, 8% of the Moon is Illuminated
Dec 15
Waxing Crescent
Dec 19
First Quarter
Dec 28
Full
Jan 4
Last Quarter
Jan 11
New

Hourly Weather History & Observations

Time (CST) Temp. Windchill Dew Point Humidity Pressure Visibility Wind Dir Wind Speed Gust Speed Precip Events Conditions
12:53 AM 48.0 °F - 39.9 °F 74% 29.70 in 10.0 mi SSW 21.9 mph - N/A   Clear
1:53 AM 46.0 °F 38.5 °F 39.0 °F 76% 29.70 in 10.0 mi SSW 19.6 mph - N/A   Clear
2:53 AM 45.0 °F 38.2 °F 37.0 °F 74% 29.71 in 10.0 mi SSW 15.0 mph - N/A   Clear
3:53 AM 44.1 °F 38.1 °F 36.0 °F 73% 29.72 in 10.0 mi SW 11.5 mph - N/A   Clear
4:53 AM 42.1 °F 33.3 °F 36.0 °F 79% 29.73 in 10.0 mi SSW 19.6 mph - N/A   Clear
5:53 AM 41.0 °F 32.5 °F 35.1 °F 79% 29.73 in 10.0 mi SSW 17.3 mph - N/A   Clear
6:53 AM 39.9 °F 31.4 °F 34.0 °F 79% 29.78 in 10.0 mi SSW 16.1 mph - N/A   Clear
7:53 AM 37.4 °F 28.9 °F 33.8 °F 87% 29.79 in 10.0 mi SSW 13.8 mph - N/A   Clear
8:53 AM 42.1 °F 35.2 °F 36.0 °F 79% 29.81 in 10.0 mi SW 12.7 mph - N/A   Clear
9:53 AM 48.0 °F - 36.0 °F 63% 29.82 in 10.0 mi WSW 10.4 mph - N/A   Clear
10:53 AM 50.0 °F - 36.0 °F 59% 29.83 in 10.0 mi WSW 13.8 mph - N/A   Clear
11:53 AM 52.0 °F - 37.0 °F 57% 29.81 in 10.0 mi WSW 12.7 mph - N/A   Clear
12:53 PM 54.0 °F - 37.9 °F 55% 29.78 in 10.0 mi SW 12.7 mph - N/A   Clear
1:53 PM 55.9 °F - 37.9 °F 51% 29.75 in 10.0 mi WSW 15.0 mph - N/A   Clear
2:53 PM 57.0 °F - 37.9 °F 49% 29.73 in 10.0 mi SW 17.3 mph - N/A   Clear
3:53 PM 57.0 °F - 37.0 °F 47% 29.73 in 10.0 mi SW 10.4 mph - N/A   Clear
4:53 PM 54.0 °F - 39.0 °F 57% 29.74 in 10.0 mi SSW 10.4 mph - N/A   Clear
5:53 PM 53.1 °F - 39.0 °F 59% 29.75 in 10.0 mi SW 10.4 mph - N/A   Clear
6:53 PM 52.0 °F - 37.9 °F 59% 29.76 in 10.0 mi SSW 11.5 mph - N/A   Clear
7:53 PM 50.0 °F - 39.0 °F 66% 29.77 in 10.0 mi SSW 11.5 mph - N/A   Clear
8:53 PM 52.0 °F - 36.0 °F 54% 29.76 in 10.0 mi SW 12.7 mph - N/A   Clear
9:53 PM 52.0 °F - 34.0 °F 50% 29.75 in 10.0 mi WSW 12.7 mph - N/A   Clear
10:53 PM 52.0 °F - 34.0 °F 50% 29.75 in 10.0 mi WSW 15.0 mph - N/A   Clear
11:53 PM 50.0 °F - 35.1 °F 57% 29.76 in 10.0 mi SW 11.5 mph - N/A   Clear